Year,Month,Day,Hour,Minute,Value (Times are PST for temperature in C)
2006,09,11,00,00,12.80
2006,09,11,00,01,12.80
2006,09,11,00,02,12.80
2006,09,11,00,03,12.80
2006,09,11,00,04,12.80
2006,09,11,00,05,12.80
2006,09,11,00,06,12.90
2006,09,11,00,07,12.90
2006,09,11,00,08,12.90
2006,09,11,00,09,12.90
2006,09,11,00,10,12.90
2006,09,11,00,11,12.90
2006,09,11,00,12,12.90
2006,09,11,01,02,12.50
2006,09,11,01,03,12.40
2006,09,11,01,04,12.40
2006,09,11,01,05,12.40
2006,09,11,01,06,12.40
2006,09,11,01,07,12.40
2006,09,11,01,08,12.40
2006,09,11,01,09,12.40
2006,09,11,01,10,12.40
2006,09,11,01,11,12.40
2006,09,11,01,12,12.30
2006,09,11,01,13,12.30
2006,09,11,01,14,12.30
2006,09,11,01,15,12.30
2006,09,11,01,16,12.30
2006,09,11,01,17,12.30
2006,09,11,01,18,12.30
2006,09,11,01,19,12.30
2006,09,11,01,20,12.30
2006,09,11,01,21,12.30
2006,09,11,01,22,12.30
2006,09,11,01,23,12.30
2006,09,11,01,24,12.30
2006,09,11,01,25,12.30
2006,09,11,01,26,12.30
2006,09,11,01,27,12.20
2006,09,11,01,28,12.20
2006,09,11,01,29,12.20
2006,09,11,01,30,12.20
2006,09,11,01,31,12.10
2006,09,11,01,32,12.10
2006,09,11,01,33,12.10
2006,09,11,01,34,12.00
2006,09,11,01,35,12.00
2006,09,11,01,36,12.00
2006,09,11,01,37,11.90
2006,09,11,01,38,11.90
2006,09,11,01,39,11.90
2006,09,11,01,40,11.90
2006,09,11,01,41,11.80
2006,09,11,01,42,11.80
2006,09,11,01,43,11.80
2006,09,11,01,44,11.80
2006,09,11,01,45,11.80
2006,09,11,01,46,11.80
2006,09,11,01,47,11.80
2006,09,11,01,48,11.80
2006,09,11,01,49,11.70
2006,09,11,01,50,11.70
2006,09,11,01,51,11.70
2006,09,11,01,52,11.70
2006,09,11,01,53,11.60
2006,09,11,01,54,11.60
2006,09,11,01,55,11.60
2006,09,11,01,56,11.60
2006,09,11,01,57,11.60
2006,09,11,01,58,11.60
2006,09,11,01,59,11.60
2006,09,11,02,00,11.60
2006,09,11,02,01,11.60
2006,09,11,02,02,11.60
2006,09,11,02,03,11.60
2006,09,11,02,04,11.50
2006,09,11,02,05,11.40
2006,09,11,02,06,11.40
2006,09,11,02,07,11.40
2006,09,11,02,08,11.40
2006,09,11,02,09,11.40
2006,09,11,02,10,11.40
2006,09,11,02,11,11.40
2006,09,11,02,12,11.40
2006,09,11,02,13,11.40
2006,09,11,02,14,11.40
2006,09,11,02,15,11.40
2006,09,11,02,16,11.40
2006,09,11,02,17,11.40
2006,09,11,02,18,11.30
2006,09,11,02,19,11.30
2006,09,11,02,20,11.30
2006,09,11,02,21,11.30
2006,09,11,02,22,11.30
2006,09,11,02,23,11.30
2006,09,11,02,24,11.30
2006,09,11,02,25,11.30
2006,09,11,02,26,11.30
2006,09,11,02,27,11.30
2006,09,11,02,28,11.30
2006,09,11,02,29,11.30
2006,09,11,02,30,11.30
2006,09,11,02,31,11.30
2006,09,11,02,32,11.30
2006,09,11,02,33,11.30
2006,09,11,02,34,11.30
2006,09,11,02,35,11.20
2006,09,11,02,36,11.20
2006,09,11,02,37,11.20
2006,09,11,02,38,11.20
2006,09,11,02,39,11.20
2006,09,11,02,40,11.20
2006,09,11,02,41,11.20
2006,09,11,02,42,11.10
2006,09,11,02,43,11.10
2006,09,11,02,44,11.10
2006,09,11,02,45,11.10
2006,09,11,02,46,11.10
2006,09,11,02,47,11.10
2006,09,11,02,48,11.10
2006,09,11,02,49,11.10
2006,09,11,02,50,11.00
2006,09,11,02,51,10.90
2006,09,11,02,52,10.90
2006,09,11,02,53,10.90
2006,09,11,02,54,10.90
2006,09,11,02,55,10.90
2006,09,11,02,56,10.90
2006,09,11,02,57,10.90
2006,09,11,02,58,10.90
2006,09,11,02,59,10.90
2006,09,11,03,00,10.90
2006,09,11,03,01,10.90
2006,09,11,03,02,10.90
2006,09,11,03,03,10.90
2006,09,11,03,04,10.90
2006,09,11,03,05,10.90
2006,09,11,03,06,10.90
2006,09,11,03,07,10.90
2006,09,11,03,08,10.90
2006,09,11,03,09,10.90
2006,09,11,03,10,10.90
2006,09,11,03,11,10.80
2006,09,11,03,12,10.80
2006,09,11,03,13,10.80
2006,09,11,03,14,10.80
2006,09,11,03,15,10.80
2006,09,11,03,16,10.80
2006,09,11,03,17,10.80
2006,09,11,03,18,10.80
2006,09,11,03,19,10.80
2006,09,11,03,20,10.80
2006,09,11,03,21,10.70
2006,09,11,03,22,10.70
2006,09,11,03,23,10.70
2006,09,11,03,24,10.80
2006,09,11,03,25,10.80
2006,09,11,03,26,10.80
2006,09,11,03,27,10.80
2006,09,11,03,28,10.80
2006,09,11,03,29,10.80
2006,09,11,03,30,10.80
2006,09,11,03,31,10.80
2006,09,11,03,32,10.80
2006,09,11,03,33,10.80
2006,09,11,03,34,10.80
2006,09,11,03,35,10.80
2006,09,11,03,36,10.80
2006,09,11,03,37,10.80
2006,09,11,03,38,10.80
2006,09,11,03,39,10.80
2006,09,11,03,40,10.80
2006,09,11,03,41,10.70
2006,09,11,03,42,10.70
2006,09,11,03,43,10.70
2006,09,11,03,44,10.70
2006,09,11,03,45,10.70
2006,09,11,03,46,10.70
2006,09,11,03,47,10.70
2006,09,11,03,48,10.70
2006,09,11,03,49,10.70
2006,09,11,03,50,10.70
2006,09,11,03,51,10.70
2006,09,11,03,52,10.70
2006,09,11,03,53,10.70
2006,09,11,03,54,10.60
2006,09,11,03,55,10.60
2006,09,11,03,56,10.60
2006,09,11,03,57,10.60
2006,09,11,03,58,10.60
2006,09,11,03,59,10.60
2006,09,11,04,00,10.60
2006,09,11,04,01,10.60
2006,09,11,04,02,10.60
2006,09,11,04,03,10.60
2006,09,11,04,04,10.60
2006,09,11,04,05,10.60
2006,09,11,04,06,10.60
2006,09,11,04,07,10.60
2006,09,11,04,08,10.60
2006,09,11,04,09,10.60
2006,09,11,04,10,10.60
2006,09,11,04,11,10.60
2006,09,11,04,12,10.60
2006,09,11,04,13,10.60
2006,09,11,04,14,10.60
2006,09,11,04,15,10.60
2006,09,11,04,16,10.60
2006,09,11,04,17,10.60
2006,09,11,04,18,10.60
2006,09,11,04,19,10.60
2006,09,11,04,20,10.60
2006,09,11,04,21,10.60
2006,09,11,04,22,10.50
2006,09,11,04,23,10.40
2006,09,11,04,24,10.40
2006,09,11,04,25,10.40
2006,09,11,04,26,10.40
2006,09,11,04,27,10.40
2006,09,11,04,28,10.40
2006,09,11,04,29,10.40
2006,09,11,04,30,10.40
2006,09,11,04,31,10.40
2006,09,11,04,32,10.40
2006,09,11,04,33,10.40
2006,09,11,04,34,10.40
2006,09,11,04,35,10.40
2006,09,11,04,36,10.40
2006,09,11,04,37,10.30
2006,09,11,04,38,10.30
2006,09,11,04,39,10.30
2006,09,11,04,40,10.30
2006,09,11,04,41,10.30
2006,09,11,04,42,10.30
2006,09,11,04,43,10.20
2006,09,11,04,44,10.20
2006,09,11,04,45,10.20
2006,09,11,04,46,10.20
2006,09,11,04,47,10.20
2006,09,11,04,48,10.20
2006,09,11,04,49,10.20
2006,09,11,04,50,10.20
2006,09,11,04,51,10.10
2006,09,11,04,52,10.10
2006,09,11,04,53,10.10
2006,09,11,04,54,10.10
2006,09,11,04,55,10.10
2006,09,11,04,56,10.10
2006,09,11,04,57,10.10
2006,09,11,04,58,10.10
2006,09,11,04,59,10.10
2006,09,11,05,00,10.10
2006,09,11,05,01,10.10
2006,09,11,05,02,10.10
2006,09,11,05,03,10.10
2006,09,11,05,04,10.10
2006,09,11,05,05,10.10
2006,09,11,05,06,10.10
2006,09,11,05,07,10.10
2006,09,11,05,08,10.10
2006,09,11,05,09,10.10
2006,09,11,05,10,10.10
2006,09,11,05,11,10.10
2006,09,11,05,12,10.10
2006,09,11,05,13,10.10
2006,09,11,05,14,10.10
2006,09,11,05,15,10.10
2006,09,11,05,16,10.10
2006,09,11,05,17,10.10
2006,09,11,05,18,10.10
2006,09,11,05,19,10.10
2006,09,11,05,20,10.10
2006,09,11,05,21,10.10
2006,09,11,05,22,10.10
2006,09,11,05,23,10.10
2006,09,11,05,24,10.10
2006,09,11,05,25,10.10
2006,09,11,05,26,10.10
2006,09,11,05,27,10.10
2006,09,11,05,28,10.10
2006,09,11,05,29,10.10
2006,09,11,05,30,10.00
2006,09,11,05,31,9.90
2006,09,11,05,32,9.90
2006,09,11,05,33,9.90
2006,09,11,05,34,9.90
2006,09,11,05,35,9.90
2006,09,11,05,36,9.90
2006,09,11,05,37,9.90
2006,09,11,05,38,9.90
2006,09,11,05,39,9.90
2006,09,11,05,40,9.90
2006,09,11,05,41,9.90
2006,09,11,05,42,9.90
2006,09,11,05,43,9.90
2006,09,11,05,44,9.90
2006,09,11,05,45,9.90
2006,09,11,05,46,9.80
2006,09,11,05,47,9.80
2006,09,11,05,48,9.80
2006,09,11,05,49,9.80
2006,09,11,05,50,9.80
2006,09,11,05,51,9.90
2006,09,11,05,52,9.90
2006,09,11,05,53,9.90
2006,09,11,05,54,9.90
2006,09,11,05,55,9.90
2006,09,11,05,56,9.90
2006,09,11,05,57,9.90
2006,09,11,05,58,9.90
2006,09,11,05,59,9.80
2006,09,11,06,00,9.80
2006,09,11,06,01,9.80
2006,09,11,06,02,9.80
2006,09,11,06,03,9.80
2006,09,11,06,04,9.70
2006,09,11,06,05,9.70
2006,09,11,06,06,9.70
2006,09,11,06,07,9.70
2006,09,11,06,08,9.70
2006,09,11,06,09,9.70
2006,09,11,06,10,9.70
2006,09,11,06,11,9.70
2006,09,11,06,12,9.70
2006,09,11,06,13,9.70
2006,09,11,06,14,9.70
2006,09,11,06,15,9.70
2006,09,11,06,16,9.70
2006,09,11,06,17,9.70
2006,09,11,06,18,9.70
2006,09,11,06,19,9.80
2006,09,11,06,20,9.80
2006,09,11,06,21,9.80
2006,09,11,06,22,9.80
2006,09,11,06,23,9.80
2006,09,11,06,24,9.80
2006,09,11,06,25,9.80
2006,09,11,06,26,9.80
2006,09,11,06,27,9.80
2006,09,11,06,28,9.80
2006,09,11,06,29,9.80
2006,09,11,06,30,9.80
2006,09,11,06,31,9.80
2006,09,11,06,32,9.80
2006,09,11,06,33,9.80
2006,09,11,06,34,9.80
2006,09,11,06,35,9.80
2006,09,11,06,36,9.80
2006,09,11,06,37,9.80
2006,09,11,06,38,9.80
2006,09,11,06,39,9.80
2006,09,11,06,40,9.80
2006,09,11,06,41,9.80
2006,09,11,06,42,9.80
2006,09,11,06,43,9.80
2006,09,11,06,44,9.80
2006,09,11,06,45,9.80
2006,09,11,06,46,9.80
2006,09,11,06,47,9.80
2006,09,11,06,48,9.80
2006,09,11,06,49,9.80
2006,09,11,06,50,9.80
2006,09,11,06,51,9.90
2006,09,11,06,52,9.90
2006,09,11,06,53,9.90
2006,09,11,06,54,9.90
2006,09,11,06,55,9.90
2006,09,11,06,56,9.90
2006,09,11,06,57,9.90
2006,09,11,06,58,9.90
2006,09,11,06,59,9.90
2006,09,11,07,00,9.90
2006,09,11,07,01,9.90
2006,09,11,07,02,9.90
2006,09,11,07,03,9.90
2006,09,11,07,04,9.90
2006,09,11,07,05,9.90
2006,09,11,07,06,9.90
2006,09,11,07,07,9.90
2006,09,11,07,08,9.90
2006,09,11,07,09,9.90
2006,09,11,07,10,9.90
2006,09,11,07,11,9.90
2006,09,11,07,12,9.90
2006,09,11,07,13,9.90
2006,09,11,07,14,10.00
2006,09,11,07,15,10.10
2006,09,11,07,16,10.10
2006,09,11,07,17,10.10
2006,09,11,07,18,10.10
2006,09,11,07,19,10.10
2006,09,11,07,20,10.10
2006,09,11,07,21,10.10
2006,09,11,07,22,10.10
2006,09,11,07,23,10.10
2006,09,11,07,24,10.10
2006,09,11,07,25,10.10
2006,09,11,07,26,10.10
2006,09,11,07,27,10.10
2006,09,11,07,28,10.20
2006,09,11,07,29,10.20
2006,09,11,07,30,10.20
2006,09,11,07,31,10.20
2006,09,11,07,32,10.20
2006,09,11,07,33,10.30
2006,09,11,07,34,10.30
2006,09,11,07,35,10.30
2006,09,11,07,36,10.40
2006,09,11,07,37,10.40
2006,09,11,07,38,10.40
2006,09,11,07,39,10.40
2006,09,11,07,40,10.50
2006,09,11,07,41,10.60
2006,09,11,07,42,10.60
2006,09,11,07,43,10.60
2006,09,11,07,44,10.60
2006,09,11,07,45,10.70
2006,09,11,07,46,10.80
2006,09,11,07,47,10.80
2006,09,11,07,48,10.90
2006,09,11,07,49,10.90
2006,09,11,07,50,10.90
2006,09,11,07,51,11.00
2006,09,11,07,52,11.10
2006,09,11,07,53,11.10
2006,09,11,07,54,11.10
2006,09,11,07,55,11.20
2006,09,11,07,56,11.20
2006,09,11,07,57,11.30
2006,09,11,07,58,11.30
2006,09,11,07,59,11.40
2006,09,11,08,00,11.40
2006,09,11,08,01,11.40
2006,09,11,08,02,11.50
2006,09,11,08,03,11.60
2006,09,11,08,04,11.60
2006,09,11,08,05,11.60
2006,09,11,08,06,11.70
2006,09,11,08,07,11.80
2006,09,11,08,08,11.80
2006,09,11,08,09,11.90
2006,09,11,08,10,11.90
2006,09,11,08,11,12.00
2006,09,11,08,12,12.10
2006,09,11,08,13,12.20
2006,09,11,08,14,12.30
2006,09,11,08,15,12.40
2006,09,11,08,16,12.50
2006,09,11,08,17,12.50
2006,09,11,08,18,12.60
2006,09,11,08,19,12.70
2006,09,11,08,20,12.80
2006,09,11,08,21,12.90
2006,09,11,08,22,13.00
2006,09,11,08,23,13.10
2006,09,11,08,24,13.10
2006,09,11,08,25,13.20
2006,09,11,08,26,13.30
2006,09,11,08,27,13.40
2006,09,11,08,28,13.50
2006,09,11,08,29,13.60
2006,09,11,08,30,13.60
2006,09,11,08,31,13.70
2006,09,11,08,32,13.80
2006,09,11,08,33,13.90
2006,09,11,08,34,13.90
2006,09,11,08,35,14.00
2006,09,11,08,36,14.10
2006,09,11,08,37,14.20
2006,09,11,08,38,14.30
2006,09,11,08,39,14.40
2006,09,11,08,40,14.50
2006,09,11,08,41,14.60
2006,09,11,08,42,14.70
2006,09,11,08,43,14.80
2006,09,11,08,44,14.90
2006,09,11,08,45,15.00
2006,09,11,08,46,15.10
2006,09,11,08,47,15.20
2006,09,11,08,48,15.20
2006,09,11,08,49,15.30
2006,09,11,08,50,15.40
2006,09,11,08,51,15.60
2006,09,11,08,52,15.80
2006,09,11,08,53,16.10
2006,09,11,08,54,16.20
2006,09,11,08,55,16.40
2006,09,11,08,56,16.60
2006,09,11,08,57,16.70
2006,09,11,08,58,16.70
2006,09,11,08,59,16.70
2006,09,11,09,00,16.80
2006,09,11,09,01,16.80
2006,09,11,09,02,16.80
2006,09,11,09,03,16.80
2006,09,11,09,04,16.80
2006,09,11,09,05,16.80
2006,09,11,09,06,16.90
2006,09,11,09,07,16.90
2006,09,11,09,08,16.90
2006,09,11,09,09,17.00
2006,09,11,09,10,17.00
2006,09,11,09,11,17.00
2006,09,11,09,12,17.00
2006,09,11,09,13,17.00
2006,09,11,09,14,16.90
2006,09,11,09,15,16.90
2006,09,11,09,16,16.90
2006,09,11,09,17,16.90
2006,09,11,09,18,16.90
2006,09,11,09,19,16.90
2006,09,11,09,20,16.90
2006,09,11,09,21,16.90
2006,09,11,09,22,16.90
2006,09,11,09,23,16.90
2006,09,11,09,24,16.90
2006,09,11,09,25,16.90
2006,09,11,09,26,16.80
2006,09,11,09,27,16.90
2006,09,11,09,28,16.90
2006,09,11,09,29,16.90
2006,09,11,09,30,16.90
2006,09,11,09,31,16.90
2006,09,11,09,32,16.90
2006,09,11,09,33,16.90
2006,09,11,09,34,16.90
2006,09,11,09,35,16.90
2006,09,11,09,36,16.90
2006,09,11,09,37,16.90
2006,09,11,09,38,17.00
2006,09,11,09,39,17.00
2006,09,11,09,40,17.10
2006,09,11,09,41,17.00
2006,09,11,09,42,17.00
2006,09,11,09,43,17.10
2006,09,11,09,44,17.10
2006,09,11,09,45,17.10
2006,09,11,09,46,17.20
2006,09,11,09,47,17.30
2006,09,11,09,48,17.30
2006,09,11,09,49,17.40
2006,09,11,09,50,17.40
2006,09,11,09,51,17.30
2006,09,11,09,52,17.30
2006,09,11,09,53,17.40
2006,09,11,09,54,17.40
2006,09,11,09,55,17.40
2006,09,11,09,56,17.40
2006,09,11,09,57,17.50
2006,09,11,09,58,17.50
2006,09,11,09,59,17.50
2006,09,11,10,00,17.60
2006,09,11,10,01,17.60
2006,09,11,10,02,17.70
2006,09,11,10,03,17.70
2006,09,11,10,04,17.60
2006,09,11,10,05,17.60
2006,09,11,10,06,17.60
2006,09,11,10,07,17.60
2006,09,11,10,08,17.60
2006,09,11,10,09,17.70
2006,09,11,10,10,17.70
2006,09,11,10,11,17.80
2006,09,11,10,12,17.90
2006,09,11,10,13,18.00
2006,09,11,10,14,18.00
2006,09,11,10,15,18.00
2006,09,11,10,16,18.10
2006,09,11,10,17,18.10
2006,09,11,10,18,18.10
2006,09,11,10,19,18.10
2006,09,11,10,20,18.10
2006,09,11,10,21,18.10
2006,09,11,10,22,18.10
2006,09,11,10,23,18.10
2006,09,11,10,24,18.00
2006,09,11,10,25,18.00
2006,09,11,10,26,18.10
2006,09,11,10,27,18.20
2006,09,11,10,28,18.10
2006,09,11,10,29,18.10
2006,09,11,10,30,18.10
2006,09,11,10,31,18.10
2006,09,11,10,32,18.00
2006,09,11,10,33,18.10
2006,09,11,10,34,18.20
2006,09,11,10,35,18.20
2006,09,11,10,36,18.30
2006,09,11,10,37,18.40
2006,09,11,10,38,18.50
2006,09,11,10,39,18.50
2006,09,11,10,40,18.60
2006,09,11,10,41,18.60
2006,09,11,10,42,18.60
2006,09,11,10,43,18.50
2006,09,11,10,44,18.40
2006,09,11,10,45,18.40
2006,09,11,10,46,18.40
2006,09,11,10,47,18.40
2006,09,11,10,48,18.50
2006,09,11,10,49,18.50
2006,09,11,10,50,18.60
2006,09,11,10,51,18.60
2006,09,11,10,52,18.60
2006,09,11,10,53,18.60
2006,09,11,10,54,18.60
2006,09,11,10,55,18.60
2006,09,11,10,56,18.60
2006,09,11,10,57,18.60
2006,09,11,10,58,18.60
2006,09,11,10,59,18.50
2006,09,11,11,00,18.50
2006,09,11,11,01,18.50
2006,09,11,11,02,18.60
2006,09,11,11,03,18.60
2006,09,11,11,04,18.60
2006,09,11,11,05,18.60
2006,09,11,11,06,18.70
2006,09,11,11,07,18.70
2006,09,11,11,08,18.70
2006,09,11,11,09,18.60
2006,09,11,11,10,18.60
2006,09,11,11,11,18.60
2006,09,11,11,12,18.60
2006,09,11,11,13,18.60
2006,09,11,11,14,18.60
2006,09,11,11,15,18.70
2006,09,11,11,16,18.70
2006,09,11,11,17,18.70
2006,09,11,11,18,18.70
2006,09,11,11,19,18.70
2006,09,11,11,20,18.80
2006,09,11,11,21,18.80
2006,09,11,11,22,18.70
2006,09,11,11,23,18.70
2006,09,11,11,24,18.70
2006,09,11,11,25,18.70
2006,09,11,11,26,18.70
2006,09,11,11,27,18.60
2006,09,11,11,28,18.60
2006,09,11,11,29,18.70
2006,09,11,11,30,18.80
2006,09,11,11,31,18.90
2006,09,11,11,32,18.90
2006,09,11,11,33,18.90
2006,09,11,11,34,18.90
2006,09,11,11,35,18.90
2006,09,11,11,36,18.90
2006,09,11,11,37,18.90
2006,09,11,11,38,18.90
2006,09,11,11,39,18.90
2006,09,11,11,40,19.00
2006,09,11,11,41,19.10
2006,09,11,11,42,19.10
2006,09,11,11,43,19.00
2006,09,11,11,44,18.90
2006,09,11,11,45,18.90
2006,09,11,11,46,18.80
2006,09,11,11,47,18.70
2006,09,11,11,48,18.70
2006,09,11,11,49,18.80
2006,09,11,11,50,18.80
2006,09,11,11,51,18.90
2006,09,11,11,52,19.00
2006,09,11,11,53,19.10
2006,09,11,11,54,19.10
2006,09,11,11,55,19.20
2006,09,11,11,56,19.20
2006,09,11,11,57,19.20
2006,09,11,11,58,19.30
2006,09,11,11,59,19.30
2006,09,11,12,00,19.30
2006,09,11,12,01,19.30
2006,09,11,12,02,19.30
2006,09,11,12,03,19.30
2006,09,11,12,04,19.30
2006,09,11,12,05,19.20
2006,09,11,12,06,19.30
2006,09,11,12,07,19.40
2006,09,11,12,08,19.40
2006,09,11,12,09,19.40
2006,09,11,12,10,19.40
2006,09,11,12,11,19.50
2006,09,11,12,12,19.60
2006,09,11,12,13,19.60
2006,09,11,12,14,19.60
2006,09,11,12,15,19.60
2006,09,11,12,16,19.50
2006,09,11,12,17,19.50
2006,09,11,12,18,19.50
2006,09,11,12,19,19.50
2006,09,11,12,20,19.60
2006,09,11,12,21,19.70
2006,09,11,12,22,19.70
2006,09,11,12,23,19.70
2006,09,11,12,24,19.70
2006,09,11,12,25,19.60
2006,09,11,12,26,19.50
2006,09,11,12,27,19.50
2006,09,11,12,28,19.60
2006,09,11,12,29,19.60
2006,09,11,12,30,19.60
2006,09,11,12,31,19.50
2006,09,11,12,32,19.50
2006,09,11,12,33,19.50
2006,09,11,12,34,19.50
2006,09,11,12,35,19.60
2006,09,11,12,36,19.60
2006,09,11,12,37,19.60
2006,09,11,12,38,19.50
2006,09,11,12,39,19.40
2006,09,11,12,40,19.40
2006,09,11,12,41,19.40
2006,09,11,12,42,19.40
2006,09,11,12,43,19.30
2006,09,11,12,44,19.40
2006,09,11,12,45,19.40
2006,09,11,12,46,19.50
2006,09,11,12,47,19.50
2006,09,11,12,48,19.50
2006,09,11,12,49,19.40
2006,09,11,12,50,19.30
2006,09,11,12,51,19.10
2006,09,11,12,52,19.00
2006,09,11,12,53,18.90
2006,09,11,12,54,18.90
2006,09,11,12,55,18.90
2006,09,11,12,56,18.90
2006,09,11,12,57,18.90
2006,09,11,12,58,19.00
2006,09,11,12,59,19.10
2006,09,11,13,00,19.10
2006,09,11,13,01,19.20
2006,09,11,13,02,19.30
2006,09,11,13,03,19.40
2006,09,11,13,04,19.40
2006,09,11,13,05,19.40
2006,09,11,13,06,19.40
2006,09,11,13,07,19.30
2006,09,11,13,08,19.30
2006,09,11,13,09,19.30
2006,09,11,13,10,19.30
2006,09,11,13,11,19.40
2006,09,11,13,12,19.50
2006,09,11,13,13,19.50
2006,09,11,13,14,19.40
2006,09,11,13,15,19.40
2006,09,11,13,16,19.60
2006,09,11,13,17,19.60
2006,09,11,13,18,19.70
2006,09,11,13,19,19.70
2006,09,11,13,20,19.60
2006,09,11,13,21,19.60
2006,09,11,13,22,19.60
2006,09,11,13,23,19.60
2006,09,11,13,24,19.50
2006,09,11,13,25,19.50
2006,09,11,13,26,19.40
2006,09,11,13,27,19.50
2006,09,11,13,28,19.50
2006,09,11,13,29,19.50
2006,09,11,13,30,19.50
2006,09,11,13,31,19.50
2006,09,11,13,32,19.50
2006,09,11,13,33,19.50
2006,09,11,13,34,19.60
2006,09,11,13,35,19.60
2006,09,11,13,36,19.60
2006,09,11,13,37,19.60
2006,09,11,13,38,19.60
2006,09,11,13,39,19.60
2006,09,11,13,40,19.60
2006,09,11,13,41,19.60
2006,09,11,13,42,19.60
2006,09,11,13,43,19.70
2006,09,11,13,44,19.70
2006,09,11,13,45,19.70
2006,09,11,13,46,19.80
2006,09,11,13,47,19.80
2006,09,11,13,48,19.80
2006,09,11,13,49,19.80
2006,09,11,13,50,19.80
2006,09,11,13,51,19.80
2006,09,11,13,52,19.80
2006,09,11,13,53,19.80
2006,09,11,13,54,19.80
2006,09,11,13,55,19.80
2006,09,11,13,56,19.80
2006,09,11,13,57,19.80
2006,09,11,13,58,19.90
2006,09,11,13,59,19.90
2006,09,11,14,00,19.90
2006,09,11,14,01,19.90
2006,09,11,14,02,19.90
2006,09,11,14,03,19.90
2006,09,11,14,04,19.90
2006,09,11,14,05,20.00
2006,09,11,14,06,20.10
2006,09,11,14,07,20.10
2006,09,11,14,08,20.10
2006,09,11,14,09,20.10
2006,09,11,14,10,20.10
2006,09,11,14,11,20.20
2006,09,11,14,12,20.20
2006,09,11,14,13,20.20
2006,09,11,14,14,20.40
2006,09,11,14,15,20.50
2006,09,11,14,16,20.50
2006,09,11,14,17,20.30
2006,09,11,14,18,20.20
2006,09,11,14,19,20.20
2006,09,11,14,20,20.20
2006,09,11,14,21,20.20
2006,09,11,14,22,20.20
2006,09,11,14,23,20.20
2006,09,11,14,24,20.30
2006,09,11,14,25,20.30
2006,09,11,14,26,20.30
2006,09,11,14,27,20.30
2006,09,11,14,28,20.40
2006,09,11,14,29,20.40
2006,09,11,14,30,20.60
2006,09,11,14,31,20.60
2006,09,11,14,32,20.70
2006,09,11,14,33,20.70
2006,09,11,14,34,20.70
2006,09,11,14,35,20.70
2006,09,11,14,36,20.60
2006,09,11,14,37,20.50
2006,09,11,14,38,20.50
2006,09,11,14,39,20.50
2006,09,11,14,40,20.50
2006,09,11,14,41,20.50
2006,09,11,14,42,20.50
2006,09,11,14,43,20.50
2006,09,11,14,44,20.50
2006,09,11,14,45,20.50
2006,09,11,14,46,20.50
2006,09,11,14,47,20.60
2006,09,11,14,48,20.70
2006,09,11,14,49,20.60
2006,09,11,14,50,20.60
2006,09,11,14,51,20.60
2006,09,11,14,52,20.50
2006,09,11,14,53,20.30
2006,09,11,14,54,20.20
2006,09,11,14,55,20.20
2006,09,11,14,56,20.20
2006,09,11,14,57,20.20
2006,09,11,14,58,20.20
2006,09,11,14,59,20.20
2006,09,11,15,00,20.30
2006,09,11,15,01,20.40
2006,09,11,15,02,20.50
2006,09,11,15,03,20.60
2006,09,11,15,04,20.60
2006,09,11,15,05,20.50
2006,09,11,15,06,20.40
2006,09,11,15,07,20.30
2006,09,11,15,08,20.30
2006,09,11,15,09,20.30
2006,09,11,15,10,20.30
2006,09,11,15,11,20.30
2006,09,11,15,12,20.20
2006,09,11,15,13,20.30
2006,09,11,15,14,20.30
2006,09,11,15,15,20.30
2006,09,11,15,16,20.30
2006,09,11,15,17,20.40
2006,09,11,15,18,20.40
2006,09,11,15,19,20.50
2006,09,11,15,20,20.50
2006,09,11,15,21,20.50
2006,09,11,15,22,20.60
2006,09,11,15,23,20.60
2006,09,11,15,24,20.70
2006,09,11,15,25,20.80
2006,09,11,15,26,20.80
2006,09,11,15,27,20.90
2006,09,11,15,28,20.90
2006,09,11,15,29,20.90
2006,09,11,15,30,21.00
2006,09,11,15,31,21.00
2006,09,11,15,32,21.10
2006,09,11,15,33,21.20
2006,09,11,15,34,21.20
2006,09,11,15,35,21.30
2006,09,11,15,36,21.50
2006,09,11,15,37,21.60
2006,09,11,15,38,21.60
2006,09,11,15,39,21.60
2006,09,11,15,40,21.70
2006,09,11,15,41,21.70
2006,09,11,15,42,21.70
2006,09,11,15,43,21.70
2006,09,11,15,44,21.70
2006,09,11,15,45,21.70
2006,09,11,15,46,21.80
2006,09,11,15,47,21.90
2006,09,11,15,48,21.90
2006,09,11,15,49,22.00
2006,09,11,15,50,22.00
2006,09,11,15,51,22.10
2006,09,11,15,52,22.20
2006,09,11,15,53,22.30
2006,09,11,15,54,22.30
2006,09,11,15,55,22.40
2006,09,11,15,56,22.60
2006,09,11,15,57,22.70
2006,09,11,15,58,22.80
2006,09,11,15,59,22.90
2006,09,11,16,00,23.10
2006,09,11,16,01,23.20
2006,09,11,16,02,23.30
2006,09,11,16,03,23.30
2006,09,11,16,04,23.30
2006,09,11,16,05,23.40
2006,09,11,16,06,23.40
2006,09,11,16,07,23.60
2006,09,11,16,08,23.70
2006,09,11,16,09,23.70
2006,09,11,16,10,23.70
2006,09,11,16,11,23.70
2006,09,11,16,12,23.80
2006,09,11,16,13,23.80
2006,09,11,16,14,23.70
2006,09,11,16,15,23.70
2006,09,11,16,16,23.70
2006,09,11,16,17,23.70
2006,09,11,16,18,23.70
2006,09,11,16,19,23.70
2006,09,11,16,20,23.70
2006,09,11,16,21,23.70
2006,09,11,16,22,23.70
2006,09,11,16,23,23.70
2006,09,11,16,24,23.70
2006,09,11,16,25,23.70
2006,09,11,16,26,23.60
2006,09,11,16,27,23.60
2006,09,11,16,28,23.60
2006,09,11,16,29,23.60
2006,09,11,16,30,23.60
2006,09,11,16,31,23.60
2006,09,11,16,32,23.60
2006,09,11,16,33,23.50
2006,09,11,16,34,23.40
2006,09,11,16,35,23.30
2006,09,11,16,36,23.30
2006,09,11,16,37,23.30
2006,09,11,16,38,23.20
2006,09,11,16,39,23.20
2006,09,11,16,40,23.30
2006,09,11,16,41,23.30
2006,09,11,16,42,23.30
2006,09,11,16,43,23.30
2006,09,11,16,44,23.20
2006,09,11,16,45,23.20
2006,09,11,16,46,23.20
2006,09,11,16,47,23.20
2006,09,11,16,48,23.20
2006,09,11,16,49,23.10
2006,09,11,16,50,23.10
2006,09,11,16,51,23.00
2006,09,11,16,52,22.90
2006,09,11,16,53,22.80
2006,09,11,16,54,22.80
2006,09,11,16,55,22.70
2006,09,11,16,56,22.70
2006,09,11,16,57,22.60
2006,09,11,16,58,22.60
2006,09,11,16,59,22.50
2006,09,11,17,00,22.50
2006,09,11,17,01,22.50
2006,09,11,17,02,22.50
2006,09,11,17,03,22.50
2006,09,11,17,04,22.60
2006,09,11,17,05,22.60
2006,09,11,17,06,22.70
2006,09,11,17,07,22.70
2006,09,11,17,08,22.70
2006,09,11,17,09,22.60
2006,09,11,17,10,22.60
2006,09,11,17,11,22.50
2006,09,11,17,12,22.40
2006,09,11,17,13,22.30
2006,09,11,17,14,22.30
2006,09,11,17,15,22.20
2006,09,11,17,16,22.20
2006,09,11,17,17,22.20
2006,09,11,17,18,22.20
2006,09,11,17,19,22.20
2006,09,11,17,20,22.20
2006,09,11,17,21,22.20
2006,09,11,17,22,22.30
2006,09,11,17,23,22.30
2006,09,11,17,24,22.30
2006,09,11,17,25,22.30
2006,09,11,17,26,22.30
2006,09,11,17,27,22.40
2006,09,11,17,28,22.40
2006,09,11,17,29,22.40
2006,09,11,17,30,22.40
2006,09,11,17,31,22.40
2006,09,11,17,32,22.40
2006,09,11,17,33,22.40
2006,09,11,17,34,22.40
2006,09,11,17,35,22.40
2006,09,11,17,36,22.50
2006,09,11,17,37,22.50
2006,09,11,17,38,22.50
2006,09,11,17,39,22.60
2006,09,11,17,40,22.70
2006,09,11,17,41,22.80
2006,09,11,17,42,22.80
2006,09,11,17,43,22.80
2006,09,11,17,44,22.90
2006,09,11,17,45,22.90
2006,09,11,17,46,22.90
2006,09,11,17,47,22.90
2006,09,11,17,48,22.90
2006,09,11,17,49,22.90
2006,09,11,17,50,22.90
2006,09,11,17,51,22.90
2006,09,11,17,52,22.90
2006,09,11,17,53,22.90
2006,09,11,17,54,22.90
2006,09,11,17,55,22.90
2006,09,11,17,56,22.90
2006,09,11,17,57,22.90
2006,09,11,17,58,22.90
2006,09,11,17,59,22.80
2006,09,11,18,00,22.80
2006,09,11,18,01,22.80
2006,09,11,18,02,22.80
2006,09,11,18,03,22.70
2006,09,11,18,04,22.70
2006,09,11,18,05,22.60
2006,09,11,18,06,22.60
2006,09,11,18,07,22.60
2006,09,11,18,08,22.50
2006,09,11,18,09,22.50
2006,09,11,18,10,22.40
2006,09,11,18,11,22.40
2006,09,11,18,12,22.40